Location: Bucaritos
(10.0779°N, 67.0369°W)
Time: 21:13:21
(UTC+00:00)

Feng Yun 1-1 Rocket - Pass Details

Date: 27 June 2022
Orbit: 830 x 933 km, 99.2° (Epoch: 14 August)

Event Time Altitude Azimuth Distance (km) Brightness Sun altitude
Exits shadow 23:41:39 - 157° (SSE) 2,701 6.4 -11.8°
Reaches altitude 10° 23:42:21 10° 156° (SSE) 2,429 6.1 -11.9°
Maximum altitude 23:47:38 61° 76° (ENE) 938 4.2 -13.1°
Drops below altitude 10° 23:52:57 10° 357° (N) 2,447 7.0 -14.2°
Sets 23:55:20 0° 354° (N) 3,392 7.8 -14.8°
